Location: Czu?�w
(50.1404°N, 18.9919°E)
Time: 03:18:02
(UTC+00:00)

SAR-Lupe-4 - Pass Details

Date: 27 October 2020
Orbit: 481 x 484 km, 98.2° (Epoch: 22 November)

Event Time Altitude Azimuth Distance (km) Brightness Sun altitude
Rises 16:19:02 0° 20° (NNE) 2,557 6.9 -8.6°
Reaches altitude 10° 16:21:12 10° 29° (NNE) 1,672 5.9 -9.0°
Maximum altitude 16:24:36 39° 99° (E) 740 4.0 -9.5°
Drops below altitude 10° 16:27:57 10° 170° (S) 1,658 6.3 -10.0°
Sets 16:30:06 0° 178° (S) 2,532 7.3 -10.4°
